Location: Unnamed
(47.6578°N, 23.5640°E)
Time: 21:29:10
(UTC+03:00)

ISS - Pass Details

Date: 01 April 2020
Orbit: 418 x 421 km, 51.6° (Epoch: 08 May)

Event Time Altitude Azimuth Distance (km) Brightness Sun altitude
Rises 22:02:31 0° 291° (WNW) 2,387 1.5 -20.6°
Reaches altitude 10° 22:04:44 10° 283° (WNW) 1,518 0.1 -20.9°
Enters shadow 22:07:36 34° 227° (SW) 717 -2.5 -21.3°
